FW5778 Weather Reports


Display with metric or nautical units.
time (UTC)temp
F
wind
direction
speed
MPH
gust
MPH
rain 1hr
in
rain 24hr
in
rain mn
in
humidity
%
barometer
mb
20260502152015 59 153 4.0 10.0 0.00 0.00 0.00 32 1024.2
20260502151514 59 156 5.0 10.0 0.00 0.00 0.00 32 1024.2
20260502151013 59 131 5.0 8.0 0.00 0.00 0.00 33 1024.2
20260502150512 58 115 3.0 8.0 0.00 0.00 0.00 34 1024.3
20260502130547 48 175 1.0 4.0 0.00 0.00 0.00 46 1024.3
20260502123541 45 198 0.0 1.0 0.00 0.00 0.00 53 1024.1
20260502123047 44 200 0.0 2.0 0.00 0.00 0.00 54 1024.1
20260502122542 44 193 0.0 2.0 0.00 0.00 0.00 56 1024.0
20260502122041 44 201 0.0 0.0 0.00 0.00 0.00 57 1024.0
20260502121544 45 198 0.0 0.0 0.00 0.00 0.00 58 1024.0
20260502121039 45 198 0.0 0.0 0.00 0.00 0.00 57 1024.1
20260502120535 46 198 0.0 1.0 0.00 0.00 0.00 55 1024.0
20260502115535 46 158 0.0 3.0 0.00 0.00 0.00 53 1024.0
20260502115034 47 161 1.0 4.0 0.00 0.00 0.00 53 1023.9
20260502114535 47 162 1.0 4.0 0.00 0.00 0.00 54 1023.9
20260502114033 47 141 1.0 4.0 0.00 0.00 0.00 55 1023.9
20260502113533 47 195 1.0 4.0 0.00 0.00 0.00 54 1023.9
20260502113033 47 151 1.0 5.0 0.00 0.00 0.00 55 1023.9
20260502112532 47 164 2.0 6.0 0.00 0.00 0.00 57 1023.9
20260502112032 48 185 3.0 6.0 0.00 0.00 0.00 59 1023.8
20260502111538 48 164 1.0 7.0 0.00 0.00 0.00 60 1023.9
20260502111032 48 212 2.0 6.0 0.00 0.00 0.00 59 1023.9
20260502110531 48 158 2.0 6.0 0.00 0.00 0.00 58 1023.9
20260502110035 48 154 2.0 6.0 0.00 0.00 0.00 56 1023.9
20260502105531 48 217 1.0 8.0 0.00 0.00 0.00 55 1023.9
20260502105028 48 173 3.0 8.0 0.00 0.00 0.00 54 1024.0
20260502104529 48 148 2.0 6.0 0.00 0.00 0.00 54 1024.0
20260502104028 48 165 1.0 3.0 0.00 0.00 0.00 54 1024.0
20260502103528 48 167 1.0 4.0 0.00 0.00 0.00 53 1024.0
20260502103027 48 165 2.0 4.0 0.00 0.00 0.00 52 1024.0
20260502102531 47 165 1.0 3.0 0.00 0.00 0.00 52 1024.0
20260502102028 47 186 1.0 3.0 0.00 0.00 0.00 53 1024.0
20260502101527 47 167 1.0 3.0 0.00 0.00 0.00 52 1023.9
20260502101026 47 146 0.0 3.0 0.00 0.00 0.00 51 1023.9
20260502100526 47 215 1.0 3.0 0.00 0.00 0.00 50 1023.9
20260502091524 47 215 0.0 3.0 0.00 0.00 0.00 46 1023.7
20260502091023 48 216 1.0 3.0 0.00 0.00 0.00 46 1023.8
20260502090523 48 215 1.0 4.0 0.00 0.00 0.00 45 1023.8
20260502071514 47 230 1.0 3.0 0.00 0.00 0.00 47 1024.1
20260502071011 47 250 1.0 2.0 0.00 0.00 0.00 47 1024.1
20260502070513 47 257 1.0 3.0 0.00 0.00 0.00 47 1024.1
20260502070019 46 224 2.0 3.0 0.00 0.00 0.00 48 1024.1
20260502065510 46 243 0.0 0.0 0.00 0.00 0.00 51 1024.1
20260502065011 47 236 0.0 0.0 0.00 0.00 0.00 50 1024.1
20260502064507 47 236 0.0 0.0 0.00 0.00 0.00 48 1024.1
20260502064006 47 236 0.0 1.0 0.00 0.00 0.00 47 1024.1
20260502063507 47 236 0.0 1.0 0.00 0.00 0.00 48 1024.0
20260502063007 47 236 0.0 2.0 0.00 0.00 0.00 49 1024.0
20260502062505 47 236 0.0 3.0 0.00 0.00 0.00 48 1024.0
20260502062005 47 238 2.0 3.0 0.00 0.00 0.00 47 1024.0
20260502061504 47 238 0.0 0.0 0.00 0.00 0.00 49 1024.0
20260502061004 47 161 0.0 0.0 0.00 0.00 0.00 49 1023.9
20260502060502 47 160 0.0 0.0 0.00 0.00 0.00 48 1023.9
20260502060001 48 160 0.0 0.0 0.00 0.00 0.00 48 1023.9
20260502055502 48 154 0.0 0.0 0.00 0.00 0.00 46 1023.9
20260502055003 49 154 0.0 0.0 0.00 0.00 0.00 46 1023.9
20260502054500 49 153 0.0 0.0 0.00 0.00 0.00 42 1023.9
20260502054000 49 126 0.0 0.0 0.00 0.00 0.00 44 1023.9
20260502053500 49 157 0.0 1.0 0.00 0.00 0.00 43 1023.8
20260502053100 50 157 0.0 1.0 0.00 0.00 0.00 42 1023.8
20260502052600 50 186 0.0 0.0 0.00 0.00 0.00 40 1023.8
20260502052102 51 149 0.0 0.0 0.00 0.00 0.00 39 1023.8
20260502051600 51 244 0.0 0.0 0.00 0.00 0.00 38 1023.8
20260502051101 51 258 0.0 0.0 0.00 0.00 0.00 38 1023.7
20260502050600 51 259 0.0 2.0 0.00 0.00 0.00 38 1023.8
20260502050100 51 261 0.0 2.0 0.00 0.00 0.00 38 1023.8
20260502045600 51 269 1.0 3.0 0.00 0.00 0.00 38 1023.8
20260502045100 51 264 0.0 2.0 0.00 0.00 0.00 38 1023.8
20260502044600 52 247 0.0 0.0 0.00 0.00 0.00 38 1023.8
20260502044058 52 257 0.0 0.0 0.00 0.00 0.00 38 1023.8
20260502043558 52 250 0.0 0.0 0.00 0.00 0.00 38 1023.7
20260502043108 52 262 0.0 0.0 0.00 0.00 0.00 38 1023.8
20260502042601 52 148 0.0 0.0 0.00 0.00 0.00 37 1023.7
20260502042059 52 145 0.0 0.0 0.00 0.00 0.00 37 1023.7
20260502041559 53 249 0.0 2.0 0.00 0.00 0.00 36 1023.7
20260502041058 53 267 0.0 3.0 0.00 0.00 0.00 35 1023.6
20260502040558 53 255 0.0 3.0 0.00 0.00 0.00 35 1023.6
20260502040058 53 276 1.0 3.0 0.00 0.00 0.00 35 1023.5
20260502035600 53 246 0.0 2.0 0.00 0.00 0.00 35 1023.5
20260502035057 53 252 1.0 2.0 0.00 0.00 0.00 35 1023.4
20260502034557 53 261 0.0 0.0 0.00 0.00 0.00 35 1023.4
20260502034057 54 251 0.0 0.0 0.00 0.00 0.00 35 1023.3
20260502033556 54 252 0.0 3.0 0.00 0.00 0.00 35 1023.2
20260502033058 54 275 1.0 3.0 0.00 0.00 0.00 34 1023.2
20260502032556 55 274 1.0 2.0 0.00 0.00 0.00 34 1023.1
20260502032059 55 277 1.0 3.0 0.00 0.00 0.00 34 1023.0
20260502031557 55 269 1.0 3.0 0.00 0.00 0.00 33 1023.0
20260502031059 56 274 2.0 3.0 0.00 0.00 0.00 33 1022.9
20260502030555 56 257 1.0 3.0 0.00 0.00 0.00 32 1022.8
20260502030059 56 275 1.0 3.0 0.00 0.00 0.00 32 1022.7
20260502025555 57 280 1.0 2.0 0.00 0.00 0.00 31 1022.6
20260502025058 57 274 1.0 2.0 0.00 0.00 0.00 31 1022.6
20260502024556 58 284 0.0 5.0 0.00 0.00 0.00 30 1022.5
20260502024055 58 290 2.0 5.0 0.00 0.00 0.00 29 1022.5
20260502023558 59 291 1.0 4.0 0.00 0.00 0.00 29 1022.5
20260502023057 59 307 2.0 5.0 0.00 0.00 0.00 28 1022.4
20260502022556 59 318 2.0 5.0 0.00 0.00 0.00 27 1022.4
20260502022054 59 324 2.0 4.0 0.00 0.00 0.00 27 1022.4
20260502021555 60 325 1.0 6.0 0.00 0.00 0.00 27 1022.4
20260502021054 60 342 3.0 6.0 0.00 0.00 0.00 26 1022.4
20260502020554 61 324 4.0 7.0 0.00 0.00 0.00 25 1022.4
20260502020054 61 312 3.0 8.0 0.00 0.00 0.00 25 1022.2
20260502015554 61 308 0.0 9.0 0.00 0.00 0.00 25 1022.2
20260502015054 61 304 4.0 9.0 0.00 0.00 0.00 25 1022.2
20260502014553 62 305 4.0 9.0 0.00 0.00 0.00 25 1022.2
20260502014053 62 319 5.0 10.0 0.00 0.00 0.00 25 1022.2
20260502013554 62 293 6.0 11.0 0.00 0.00 0.00 25 1022.1
20260502013055 62 305 4.0 9.0 0.00 0.00 0.00 25 1022.1
20260502012552 63 298 3.0 10.0 0.00 0.00 0.00 25 1022.0
20260502012052 63 353 5.0 10.0 0.00 0.00 0.00 25 1022.0
20260502011556 62 328 4.0 11.0 0.00 0.00 0.00 25 1022.0
20260502011052 62 273 5.0 10.0 0.00 0.00 0.00 25 1022.0
20260502010551 62 330 5.0 12.0 0.00 0.00 0.00 25 1022.1
20260502010054 63 4 5.0 13.0 0.00 0.00 0.00 25 1022.1
20260502005551 63 273 4.0 12.0 0.00 0.00 0.00 25 1022.1
20260502005051 63 301 5.0 12.0 0.00 0.00 0.00 25 1022.1
20260502004605 63 248 6.0 10.0 0.00 0.00 0.00 25 1022.1
20260502004051 63 357 5.0 13.0 0.00 0.00 0.00 25 1022.0
20260502003550 63 1 8.0 13.0 0.00 0.00 0.00 25 1022.1
20260502003050 64 341 7.0 12.0 0.00 0.00 0.00 24 1022.0
20260502002549 63 330 4.0 11.0 0.00 0.00 0.00 25 1022.1
20260502002049 63 328 6.0 12.0 0.00 0.00 0.00 24 1022.1
20260502001649 64 347 5.0 12.0 0.00 0.00 0.00 24 1022.1
20260502001049 63 342 4.0 11.0 0.00 0.00 0.00 24 1022.1
20260502000548 63 10 7.0 16.0 0.00 0.00 0.00 24 1022.2
20260502000055 63 32 8.0 16.0 0.00 0.00 0.00 25 1022.2
20260501235547 63 59 7.0 15.0 0.00 0.00 0.00 24 1022.2
20260501235046 63 356 7.0 15.0 0.00 0.00 0.00 25 1022.3
20260501234546 63 323 9.0 18.0 0.00 0.00 0.00 24 1022.3
20260501234048 63 354 10.0 18.0 0.00 0.00 0.00 24 1022.2
20260501233547 64 351 7.0 12.0 0.00 0.00 0.00 24 1022.2
20260501233047 63 331 5.0 12.0 0.00 0.00 0.00 24 1022.2
20260501232547 64 306 5.0 12.0 0.00 0.00 0.00 24 1022.2
20260501232046 64 314 7.0 12.0 0.00 0.00 0.00 24 1022.2
20260501231545 64 58 6.0 13.0 0.00 0.00 0.00 24 1022.2
20260501231045 64 340 5.0 14.0 0.00 0.00 0.00 23 1022.3
20260501230545 64 359 5.0 14.0 0.00 0.00 0.00 24 1022.3
20260501230044 64 352 3.0 14.0 0.00 0.00 0.00 24 1022.3
20260501225547 64 321 6.0 14.0 0.00 0.00 0.00 22 1022.4
20260501225045 64 319 2.0 10.0 0.00 0.00 0.00 23 1022.4
20260501224543 64 8 3.0 13.0 0.00 0.00 0.00 24 1022.4
20260501224042 64 316 3.0 13.0 0.00 0.00 0.00 22 1022.5
20260501223542 64 11 4.0 12.0 0.00 0.00 0.00 23 1022.4
20260501223041 64 41 5.0 12.0 0.00 0.00 0.00 22 1022.5
20260501222541 64 342 6.0 14.0 0.00 0.00 0.00 22 1022.5
20260501222041 64 303 5.0 15.0 0.00 0.00 0.00 22 1022.5
20260501221541 64 341 6.0 15.0 0.00 0.00 0.00 22 1022.6
20260501221042 64 1 6.0 13.0 0.00 0.00 0.00 22 1022.7
20260501220540 64 35 7.0 13.0 0.00 0.00 0.00 20 1022.7
20260501220042 64 61 5.0 14.0 0.00 0.00 0.00 21 1022.7
20260501215541 64 335 7.0 14.0 0.00 0.00 0.00 21 1022.7
20260501215039 64 56 4.0 12.0 0.00 0.00 0.00 22 1022.9
20260501214539 64 329 3.0 10.0 0.00 0.00 0.00 23 1022.9
20260501214038 64 264 1.0 11.0 0.00 0.00 0.00 23 1022.9
20260501213538 63 335 4.0 12.0 0.00 0.00 0.00 22 1023.0
20260501213051 63 22 4.0 13.0 0.00 0.00 0.00 23 1023.0
20260501212538 64 24 6.0 13.0 0.00 0.00 0.00 22 1023.0
20260501212037 64 27 6.0 14.0 0.00 0.00 0.00 23 1023.1
20260501211537 64 13 6.0 14.0 0.00 0.00 0.00 23 1023.1
20260501211037 64 46 5.0 14.0 0.00 0.00 0.00 22 1023.2
20260501210537 63 303 6.0 10.0 0.00 0.00 0.00 23 1023.2
20260501210037 63 15 4.0 14.0 0.00 0.00 0.00 23 1023.2
20260501205537 63 25 8.0 14.0 0.00 0.00 0.00 22 1023.3
20260501205042 63 14 5.0 9.0 0.00 0.00 0.00 23 1023.3
20260501204536 64 292 1.0 8.0 0.00 0.00 0.00 22 1023.3
20260501204038 63 293 4.0 10.0 0.00 0.00 0.00 25 1023.4
20260501203535 64 341 5.0 10.0 0.00 0.00 0.00 22 1023.3
20260501203034 64 48 0.0 5.0 0.00 0.00 0.00 23 1023.3
20260501202534 63 198 2.0 7.0 0.00 0.00 0.00 24 1023.3
20260501202036 63 143 4.0 12.0 0.00 0.00 0.00 22 1023.5
20260501201533 63 11 7.0 12.0 0.00 0.00 0.00 23 1023.4
20260501201034 63 324 4.0 9.0 0.00 0.00 0.00 23 1023.4
20260501200534 63 330 4.0 8.0 0.00 0.00 0.00 24 1023.5
20260501200031 62 94 4.0 9.0 0.00 0.00 0.00 23 1023.6
20260501195532 62 307 4.0 13.0 0.00 0.00 0.00 24 1023.7
20260501195030 62 346 6.0 13.0 0.00 0.00 0.00 24 1023.7
20260501194530 62 22 6.0 12.0 0.00 0.00 0.00 23 1023.7
20260501194030 62 13 4.0 10.0 0.00 0.00 0.00 26 1023.8
20260501193530 61 343 1.0 10.0 0.00 0.00 0.00 23 1023.8
20260501193029 62 321 5.0 9.0 0.00 0.00 0.00 23 1023.9
20260501192527 61 317 3.0 12.0 0.00 0.00 0.00 24 1024.0
20260501192027 61 58 7.0 12.0 0.00 0.00 0.00 23 1024.0
20260501191529 61 32 5.0 12.0 0.00 0.00 0.00 23 1024.1
20260501191027 61 316 8.0 12.0 0.00 0.00 0.00 23 1024.1
20260501190527 60 27 3.0 13.0 0.00 0.00 0.00 24 1024.1
20260501190025 60 40 6.0 13.0 0.00 0.00 0.00 22 1024.2
20260501185525 60 20 5.0 13.0 0.00 0.00 0.00 22 1024.2
20260501185024 60 12 2.0 12.0 0.00 0.00 0.00 24 1024.2
20260501184524 60 298 6.0 14.0 0.00 0.00 0.00 23 1024.3
20260501184024 60 34 5.0 10.0 0.00 0.00 0.00 24 1024.3
20260501183524 61 332 5.0 10.0 0.00 0.00 0.00 24 1024.4
20260501183023 60 37 2.0 10.0 0.00 0.00 0.00 25 1024.4
20260501182522 60 39 3.0 12.0 0.00 0.00 0.00 25 1024.5
20260501182021 60 356 3.0 11.0 0.00 0.00 0.00 26 1024.6
20260501181521 60 344 4.0 11.0 0.00 0.00 0.00 24 1024.5
20260501181020 60 49 4.0 11.0 0.00 0.00 0.00 24 1024.6
20260501180520 59 82 6.0 12.0 0.00 0.00 0.00 23 1024.6
20260501180027 60 66 2.0 9.0 0.00 0.00 0.00 23 1024.6
20260501175518 59 79 4.0 13.0 0.00 0.00 0.00 24 1024.7
20260501175016 59 65 8.0 13.0 0.00 0.00 0.00 24 1024.7
20260501174520 59 113 4.0 12.0 0.00 0.00 0.00 25 1024.7
20260501174015 58 325 5.0 13.0 0.00 0.00 0.00 25 1024.7
20260501173519 59 297 6.0 13.0 0.00 0.00 0.00 25 1024.7
20260501173013 58 131 2.0 8.0 0.00 0.00 0.00 29 1024.6
20260501172513 58 61 4.0 11.0 0.00 0.00 0.00 29 1024.9
20260501172013 58 296 2.0 9.0 0.00 0.00 0.00 29 1024.9
20260501171515 58 312 6.0 10.0 0.00 0.00 0.00 29 1024.9
20260501171115 58 333 5.0 10.0 0.00 0.00 0.00 29 1024.9
20260501170510 57 47 0.0 5.0 0.00 0.00 0.00 30 1025.0
20260501170010 57 101 1.0 8.0 0.00 0.00 0.00 30 1025.0
20260501165513 57 36 3.0 8.0 0.00 0.00 0.00 30 1025.0
20260501165009 57 15 1.0 6.0 0.00 0.00 0.00 31 1025.0
20260501164518 57 350 2.0 5.0 0.00 0.00 0.00 30 1025.0
20260501164009 56 70 3.0 7.0 0.00 0.00 0.00 31 1025.0
20260501163508 56 6 3.0 7.0 0.00 0.00 0.00 32 1025.1
20260501163009 56 52 2.0 6.0 0.00 0.00 0.00 32 1025.0
20260501162506 56 354 3.0 6.0 0.00 0.00 0.00 32 1025.0
20260501162005 56 326 1.0 6.0 0.00 0.00 0.00 34 1025.0
20260501161504 55 98 3.0 6.0 0.00 0.00 0.00 34 1025.0
20260501161002 55 34 2.0 5.0 0.00 0.00 0.00 34 1025.0
20260501160501 54 23 3.0 5.0 0.00 0.00 0.00 34 1025.0